DECAYED

STARLINK-1686, 46328 (Decayed)

Orbit data source: Space-Track

STARLINK-1686, 46328 was a payload satellite owned by SpaceX/Seattle (US) in LEO that was launched on Thu, 03 Sep 2020 UTC via an FALCON 9 launch vehicle from the Air Force Eastern Test Range (AFETR). Payload-class satellites include a variety of spacecraft equipped with specific instruments for various scientific and technological missions. These include communications satellites like Starlink; space stations such as the ISS; scientific satellites like the Hubble; Earth observation satellites from companies like Planet Labs, Umbra, and HawkEye 360; GPS; miniature CubeSats for education and research; and military/defense satellites.

Not visible in the next 10 days
Identifier
46328, 2020-062D
Orbit
Decayed
Country
Flag of USUS
Related business
Manufacturer
SpaceX/Seattle
Mission
Decayed Commercial Communications
Bus & Motor
STARLINK, Unknown motor
Mass
260 kg wet, ~248 kg dry
Launch date (UTC)
2020-09-03 (6 years ago)
Launch vehicle
FALCON 9
Launch site
Air Force Eastern Test Range (AFETR)
Object type
Payload
Rocket body
Debris
Shape & HBR
Box + 1 Pan, 10.1 m
Radar Cross Section
13.562 m², Large (>1 m²)

Expand to show TLE details & history
Last TLE update: 4 months ago

TLE from 4 months ago
0 STARLINK-1686
1 46328U 20062D   26150.55347537  .12787676  12574-4  27019-3 0  9995
2 46328  53.0162 259.2163 0007910 285.8915  74.1262 16.46286842318185
Epoch: 2026-05-30T13:17Z
TLE epoch observation values (Epoch: 2026-05-30T13:17:00.271Z)
Latitude
-0.00003°
Longitude
171.8973°
Altitude
148.652 km
Speed
7.819 km/s
True Right ascension
17h 16m 51s
True Declination
0° 00' 00"
Sunlit
Object was in full shadow at epoch
Visualization orbit readout
Latitude
Unknown
Longitude
Unknown
Altitude
Unknown
Speed
Unknown
Apparent Right ascension
Unknown
Apparent Declination
Unknown
Sunlit
N/A
Visualization observer readout
Local Sidereal Time
07:30:10
Azimuth
Unknown
Elevation
Unknown
Doppler factor
Unknown
Orbital elements
Apogee altitude
154.588 km
Perigee altitude
144.262 km
Semi-major axis
6,527.562 km
Eccentricity
0.00079
Inclination
53.0162°
RAAN
259.2163°
Arg. of periapsis
285.8915°
True anomaly
74.21341°
Mean anomaly
74.1262°
Eccentric anomaly
74.1698°
Mean motion
4.11544 °/min
Orbital period
87.48 mins
BSTAR
0.00027019
Loading maneuver chart data...
Computing Atmospheric mass density...

Documentation

Showing up to 5 results
|